Year,Month,Day,Hour,Minute,Value (Times are PST for temperature in C)
2015,08,16,00,00,14.40
2015,08,16,00,01,14.40
2015,08,16,00,02,14.40
2015,08,16,00,03,14.30
2015,08,16,00,04,14.30
2015,08,16,00,05,14.30
2015,08,16,00,06,14.30
2015,08,16,00,07,14.30
2015,08,16,00,08,14.30
2015,08,16,00,09,14.30
2015,08,16,00,10,14.30
2015,08,16,00,11,14.20
2015,08,16,00,12,14.20
2015,08,16,00,13,14.20
2015,08,16,00,14,14.20
2015,08,16,00,15,14.20
2015,08,16,00,16,14.20
2015,08,16,00,17,14.20
2015,08,16,00,18,14.20
2015,08,16,00,19,14.20
2015,08,16,00,20,14.10
2015,08,16,00,21,14.10
2015,08,16,00,22,14.10
2015,08,16,00,23,14.10
2015,08,16,00,24,14.10
2015,08,16,00,25,14.10
2015,08,16,00,26,14.10
2015,08,16,00,27,14.10
2015,08,16,00,28,14.10
2015,08,16,00,29,14.10
2015,08,16,00,30,14.10
2015,08,16,00,31,14.10
2015,08,16,00,32,14.10
2015,08,16,00,33,14.10
2015,08,16,00,34,14.10
2015,08,16,00,35,14.10
2015,08,16,00,36,14.10
2015,08,16,00,37,14.10
2015,08,16,00,38,14.10
2015,08,16,00,39,14.10
2015,08,16,00,40,14.10
2015,08,16,00,41,14.00
2015,08,16,00,42,14.00
2015,08,16,00,43,14.00
2015,08,16,00,44,14.00
2015,08,16,00,45,14.00
2015,08,16,00,46,14.00
2015,08,16,00,47,14.00
2015,08,16,00,48,14.00
2015,08,16,00,49,14.00
2015,08,16,00,50,14.00
2015,08,16,00,51,13.90
2015,08,16,00,52,13.90
2015,08,16,00,53,13.90
2015,08,16,00,54,13.90
2015,08,16,00,55,13.90
2015,08,16,00,56,13.90
2015,08,16,00,57,13.90
2015,08,16,00,58,13.90
2015,08,16,00,59,13.90
2015,08,16,01,00,13.90
2015,08,16,01,01,13.90
2015,08,16,01,02,13.90
2015,08,16,01,03,13.90
2015,08,16,01,04,13.90
2015,08,16,01,05,13.90
2015,08,16,01,06,13.90
2015,08,16,01,07,13.90
2015,08,16,01,08,13.90
2015,08,16,01,09,13.90
2015,08,16,01,10,13.90
2015,08,16,01,11,13.90
2015,08,16,01,12,13.90
2015,08,16,01,13,13.90
2015,08,16,01,14,13.90
2015,08,16,01,15,13.90
2015,08,16,01,16,13.90
2015,08,16,01,17,13.90
2015,08,16,01,18,13.80
2015,08,16,01,19,13.80
2015,08,16,01,20,13.80
2015,08,16,01,21,13.80
2015,08,16,01,22,13.80
2015,08,16,01,23,13.80
2015,08,16,01,24,13.80
2015,08,16,01,25,13.80
2015,08,16,01,26,13.80
2015,08,16,01,27,13.80
2015,08,16,01,28,13.80
2015,08,16,01,29,13.80
2015,08,16,01,30,13.80
2015,08,16,01,31,13.80
2015,08,16,01,32,13.80
2015,08,16,01,33,13.80
2015,08,16,01,34,13.80
2015,08,16,01,35,13.80
2015,08,16,01,36,13.80
2015,08,16,01,37,13.80
2015,08,16,01,38,13.80
2015,08,16,01,39,13.70
2015,08,16,01,40,13.70
2015,08,16,01,41,13.70
2015,08,16,01,42,13.70
2015,08,16,01,43,13.70
2015,08,16,01,44,13.70
2015,08,16,01,45,13.70
2015,08,16,01,46,13.70
2015,08,16,01,47,13.70
2015,08,16,01,48,13.70
2015,08,16,01,49,13.70
2015,08,16,01,50,13.60
2015,08,16,01,51,13.60
2015,08,16,01,52,13.60
2015,08,16,01,53,13.60
2015,08,16,01,54,13.60
2015,08,16,01,55,13.60
2015,08,16,01,56,13.60
2015,08,16,01,57,13.60
2015,08,16,01,58,13.60
2015,08,16,01,59,13.60
2015,08,16,02,00,13.60
2015,08,16,02,01,13.60
2015,08,16,02,02,13.60
2015,08,16,02,03,13.60
2015,08,16,02,04,13.60
2015,08,16,02,05,13.60
2015,08,16,02,06,13.60
2015,08,16,02,07,13.60
2015,08,16,02,08,13.60
2015,08,16,02,09,13.60
2015,08,16,02,10,13.60
2015,08,16,02,11,13.60
2015,08,16,02,12,13.60
2015,08,16,02,13,13.60
2015,08,16,02,14,13.60
2015,08,16,02,15,13.60
2015,08,16,02,16,13.60
2015,08,16,02,17,13.60
2015,08,16,02,18,13.60
2015,08,16,02,19,13.60
2015,08,16,02,20,13.70
2015,08,16,02,21,13.70
2015,08,16,02,22,13.70
2015,08,16,02,23,13.70
2015,08,16,02,24,13.70
2015,08,16,02,25,13.70
2015,08,16,02,26,13.70
2015,08,16,02,27,13.70
2015,08,16,02,28,13.70
2015,08,16,02,29,13.70
2015,08,16,02,30,13.70
2015,08,16,02,31,13.70
2015,08,16,02,32,13.70
2015,08,16,02,33,13.70
2015,08,16,02,34,13.70
2015,08,16,02,35,13.70
2015,08,16,02,36,13.80
2015,08,16,02,37,13.80
2015,08,16,02,38,13.80
2015,08,16,02,39,13.80
2015,08,16,02,40,13.80
2015,08,16,02,41,13.80
2015,08,16,02,42,13.80
2015,08,16,02,43,13.80
2015,08,16,02,44,13.90
2015,08,16,02,45,13.90
2015,08,16,02,46,13.90
2015,08,16,02,47,13.90
2015,08,16,02,48,13.90
2015,08,16,02,49,13.90
2015,08,16,02,50,13.90
2015,08,16,02,51,13.90
2015,08,16,02,52,14.00
2015,08,16,02,53,14.00
2015,08,16,02,54,14.00
2015,08,16,02,55,14.00
2015,08,16,02,56,14.00
2015,08,16,02,57,14.00
2015,08,16,02,58,14.00
2015,08,16,02,59,14.10
2015,08,16,03,00,14.10
2015,08,16,03,01,14.10
2015,08,16,03,02,14.10
2015,08,16,03,03,14.10
2015,08,16,03,04,14.10
2015,08,16,03,05,14.10
2015,08,16,03,06,14.10
2015,08,16,03,07,14.10
2015,08,16,03,08,14.10
2015,08,16,03,09,14.20
2015,08,16,03,10,14.20
2015,08,16,03,11,14.20
2015,08,16,03,12,14.20
2015,08,16,03,13,14.20
2015,08,16,03,14,14.20
2015,08,16,03,15,14.20
2015,08,16,03,16,14.20
2015,08,16,03,17,14.20
2015,08,16,03,18,14.20
2015,08,16,03,19,14.20
2015,08,16,03,20,14.30
2015,08,16,03,21,14.30
2015,08,16,03,22,14.30
2015,08,16,03,23,14.30
2015,08,16,03,24,14.30
2015,08,16,03,25,14.30
2015,08,16,03,26,14.30
2015,08,16,03,27,14.30
2015,08,16,03,28,14.30
2015,08,16,03,29,14.30
2015,08,16,03,30,14.30
2015,08,16,03,31,14.30
2015,08,16,03,32,14.30
2015,08,16,03,33,14.40
2015,08,16,03,34,14.40
2015,08,16,03,35,14.40
2015,08,16,03,36,14.40
2015,08,16,03,37,14.40
2015,08,16,03,38,14.40
2015,08,16,03,39,14.40
2015,08,16,03,40,14.40
2015,08,16,03,41,14.40
2015,08,16,03,42,14.40
2015,08,16,03,43,14.40
2015,08,16,03,44,14.40
2015,08,16,03,45,14.40
2015,08,16,03,46,14.50
2015,08,16,03,47,14.50
2015,08,16,03,48,14.50
2015,08,16,03,49,14.50
2015,08,16,03,50,14.60
2015,08,16,03,51,14.60
2015,08,16,03,52,14.60
2015,08,16,03,53,14.60
2015,08,16,03,54,14.60
2015,08,16,03,55,14.60
2015,08,16,03,56,14.60
2015,08,16,03,57,14.60
2015,08,16,03,58,14.60
2015,08,16,03,59,14.60
2015,08,16,04,00,14.60
2015,08,16,04,01,14.60
2015,08,16,04,02,14.60
2015,08,16,04,03,14.60
2015,08,16,04,04,14.60
2015,08,16,04,05,14.60
2015,08,16,04,06,14.60
2015,08,16,04,07,14.60
2015,08,16,04,08,14.70
2015,08,16,04,09,14.70
2015,08,16,04,10,14.70
2015,08,16,04,11,14.70
2015,08,16,04,12,14.70
2015,08,16,04,13,14.70
2015,08,16,04,14,14.70
2015,08,16,04,15,14.70
2015,08,16,04,16,14.70
2015,08,16,04,17,14.70
2015,08,16,04,18,14.70
2015,08,16,04,19,14.70
2015,08,16,04,20,14.70
2015,08,16,04,21,14.70
2015,08,16,04,22,14.70
2015,08,16,04,23,14.70
2015,08,16,04,24,14.70
2015,08,16,04,25,14.70
2015,08,16,04,26,14.70
2015,08,16,04,27,14.70
2015,08,16,04,28,14.80
2015,08,16,04,29,14.80
2015,08,16,04,30,14.80
2015,08,16,04,31,14.80
2015,08,16,04,32,14.80
2015,08,16,04,33,14.80
2015,08,16,04,34,14.80
2015,08,16,04,35,14.80
2015,08,16,04,36,14.80
2015,08,16,04,37,14.80
2015,08,16,04,38,14.80
2015,08,16,04,39,14.80
2015,08,16,04,40,14.80
2015,08,16,04,41,14.80
2015,08,16,04,42,14.80
2015,08,16,04,43,14.80
2015,08,16,04,44,14.80
2015,08,16,04,45,14.80
2015,08,16,04,46,14.80
2015,08,16,04,47,14.80
2015,08,16,04,48,14.80
2015,08,16,04,49,14.80
2015,08,16,04,50,14.80
2015,08,16,04,51,14.80
2015,08,16,04,52,14.80
2015,08,16,04,53,14.90
2015,08,16,04,54,14.90
2015,08,16,04,55,14.90
2015,08,16,04,56,14.90
2015,08,16,04,57,14.90
2015,08,16,04,58,14.90
2015,08,16,04,59,14.90
2015,08,16,05,00,14.90
2015,08,16,05,01,14.90
2015,08,16,05,02,14.90
2015,08,16,05,03,14.90
2015,08,16,05,04,14.90
2015,08,16,05,05,14.90
2015,08,16,05,06,14.90
2015,08,16,05,07,14.90
2015,08,16,05,08,14.90
2015,08,16,05,09,14.90
2015,08,16,05,10,14.90
2015,08,16,05,11,14.90
2015,08,16,05,12,14.90
2015,08,16,05,13,14.90
2015,08,16,05,14,14.90
2015,08,16,05,15,14.90
2015,08,16,05,16,14.90
2015,08,16,05,17,14.90
2015,08,16,05,18,14.90
2015,08,16,05,19,14.90
2015,08,16,05,20,14.90
2015,08,16,05,21,14.90
2015,08,16,05,22,14.90
2015,08,16,05,23,15.00
2015,08,16,05,24,15.00
2015,08,16,05,25,15.00
2015,08,16,05,26,15.00
2015,08,16,05,27,15.00
2015,08,16,05,28,15.00
2015,08,16,05,29,15.00
2015,08,16,05,30,15.00
2015,08,16,05,31,15.00
2015,08,16,05,32,15.00
2015,08,16,05,33,15.00
2015,08,16,05,34,15.00
2015,08,16,05,35,15.00
2015,08,16,05,36,15.00
2015,08,16,05,37,15.00
2015,08,16,05,38,15.00
2015,08,16,05,39,15.00
2015,08,16,05,40,15.00
2015,08,16,05,41,15.00
2015,08,16,05,42,15.00
2015,08,16,05,43,15.00
2015,08,16,05,44,15.00
2015,08,16,05,45,15.00
2015,08,16,05,46,15.00
2015,08,16,05,47,15.00
2015,08,16,05,48,15.00
2015,08,16,05,49,15.10
2015,08,16,05,50,15.10
2015,08,16,05,51,15.10
2015,08,16,05,52,15.10
2015,08,16,05,53,15.10
2015,08,16,05,54,15.10
2015,08,16,05,55,15.10
2015,08,16,05,56,15.10
2015,08,16,05,57,15.10
2015,08,16,05,58,15.10
2015,08,16,05,59,15.10
2015,08,16,06,00,15.10
2015,08,16,06,01,15.20
2015,08,16,06,02,15.20
2015,08,16,06,03,15.20
2015,08,16,06,04,15.20
2015,08,16,06,05,15.20
2015,08,16,06,06,15.20
2015,08,16,06,07,15.20
2015,08,16,06,08,15.20
2015,08,16,06,09,15.20
2015,08,16,06,10,15.20
2015,08,16,06,11,15.20
2015,08,16,06,12,15.20
2015,08,16,06,13,15.20
2015,08,16,06,14,15.20
2015,08,16,06,15,15.20
2015,08,16,06,16,15.20
2015,08,16,06,17,15.20
2015,08,16,06,18,15.20
2015,08,16,06,19,15.20
2015,08,16,06,20,15.20
2015,08,16,06,21,15.20
2015,08,16,06,22,15.20
2015,08,16,06,23,15.20
2015,08,16,06,24,15.20
2015,08,16,06,25,15.20
2015,08,16,06,26,15.20
2015,08,16,06,27,15.20
2015,08,16,06,28,15.20
2015,08,16,06,29,15.20
2015,08,16,06,30,15.20
2015,08,16,06,31,15.20
2015,08,16,06,32,15.20
2015,08,16,06,33,15.20
2015,08,16,06,34,15.20
2015,08,16,06,35,15.20
2015,08,16,06,36,15.20
2015,08,16,06,37,15.20
2015,08,16,06,38,15.20
2015,08,16,06,39,15.20
2015,08,16,06,40,15.20
2015,08,16,06,41,15.20
2015,08,16,06,42,15.20
2015,08,16,06,43,15.20
2015,08,16,06,44,15.20
2015,08,16,06,45,15.20
2015,08,16,06,46,15.20
2015,08,16,06,47,15.20
2015,08,16,06,48,15.20
2015,08,16,06,49,15.20
2015,08,16,06,50,15.30
2015,08,16,06,51,15.30
2015,08,16,06,52,15.30
2015,08,16,06,53,15.30
2015,08,16,06,54,15.30
2015,08,16,06,55,15.30
2015,08,16,06,56,15.30
2015,08,16,06,57,15.30
2015,08,16,06,58,15.30
2015,08,16,06,59,15.30
2015,08,16,07,00,15.30
2015,08,16,07,01,15.30
2015,08,16,07,02,15.30
2015,08,16,07,03,15.30
2015,08,16,07,04,15.30
2015,08,16,07,05,15.30
2015,08,16,07,06,15.30
2015,08,16,07,07,15.30
2015,08,16,07,08,15.30
2015,08,16,07,09,15.30
2015,08,16,07,10,15.30
2015,08,16,07,11,15.30
2015,08,16,07,12,15.30
2015,08,16,07,13,15.30
2015,08,16,07,14,15.30
2015,08,16,07,15,15.30
2015,08,16,07,16,15.30
2015,08,16,07,17,15.30
2015,08,16,07,18,15.40
2015,08,16,07,19,15.40
2015,08,16,07,20,15.40
2015,08,16,07,21,15.40
2015,08,16,07,22,15.40
2015,08,16,07,23,15.40
2015,08,16,07,24,15.40
2015,08,16,07,25,15.40
2015,08,16,07,26,15.40
2015,08,16,07,27,15.40
2015,08,16,07,28,15.40
2015,08,16,07,29,15.40
2015,08,16,07,30,15.40
2015,08,16,07,31,15.40
2015,08,16,07,32,15.40
2015,08,16,07,33,15.50
2015,08,16,07,34,15.50
2015,08,16,07,35,15.50
2015,08,16,07,36,15.50
2015,08,16,07,37,15.50
2015,08,16,07,38,15.60
2015,08,16,07,39,15.60
2015,08,16,07,40,15.60
2015,08,16,07,41,15.60
2015,08,16,07,42,15.60
2015,08,16,07,43,15.60
2015,08,16,07,44,15.60
2015,08,16,07,45,15.60
2015,08,16,07,46,15.60
2015,08,16,07,47,15.70
2015,08,16,07,48,15.70
2015,08,16,07,49,15.70
2015,08,16,07,50,15.70
2015,08,16,07,51,15.70
2015,08,16,07,52,15.70
2015,08,16,07,53,15.70
2015,08,16,07,54,15.80
2015,08,16,07,55,15.80
2015,08,16,07,56,15.80
2015,08,16,07,57,15.80
2015,08,16,07,58,15.80
2015,08,16,07,59,15.80
2015,08,16,08,00,15.90
2015,08,16,08,01,15.90
2015,08,16,08,02,15.90
2015,08,16,08,03,15.90
2015,08,16,08,04,15.90
2015,08,16,08,05,16.00
2015,08,16,08,06,16.00
2015,08,16,08,07,16.00
2015,08,16,08,08,16.10
2015,08,16,08,09,16.10
2015,08,16,08,10,16.10
2015,08,16,08,11,16.10
2015,08,16,08,12,16.10
2015,08,16,08,13,16.20
2015,08,16,08,14,16.20
2015,08,16,08,15,16.20
2015,08,16,08,16,16.20
2015,08,16,08,17,16.20
2015,08,16,08,18,16.20
2015,08,16,08,19,16.20
2015,08,16,08,20,16.30
2015,08,16,08,21,16.30
2015,08,16,08,22,16.30
2015,08,16,08,23,16.30
2015,08,16,08,24,16.30
2015,08,16,08,25,16.40
2015,08,16,08,26,16.40
2015,08,16,08,27,16.40
2015,08,16,08,28,16.40
2015,08,16,08,29,16.50
2015,08,16,08,30,16.50
2015,08,16,08,31,16.50
2015,08,16,08,32,16.50
2015,08,16,08,33,16.60
2015,08,16,08,34,16.60
2015,08,16,08,35,16.60
2015,08,16,08,36,16.60
2015,08,16,08,37,16.70
2015,08,16,08,38,16.70
2015,08,16,08,39,16.70
2015,08,16,08,40,16.80
2015,08,16,08,41,16.80
2015,08,16,08,42,16.80
2015,08,16,08,43,16.90
2015,08,16,08,44,16.90
2015,08,16,08,45,16.90
2015,08,16,08,46,17.00
2015,08,16,08,47,17.10
2015,08,16,08,48,17.10
2015,08,16,08,49,17.10
2015,08,16,08,50,17.10
2015,08,16,08,51,17.20
2015,08,16,08,52,17.20
2015,08,16,08,53,17.30
2015,08,16,08,54,17.30
2015,08,16,08,55,17.30
2015,08,16,08,56,17.40
2015,08,16,08,57,17.40
2015,08,16,08,58,17.50
2015,08,16,08,59,17.50
2015,08,16,09,00,17.50
2015,08,16,09,01,17.60
2015,08,16,09,02,17.60
2015,08,16,09,03,17.70
2015,08,16,09,04,17.70
2015,08,16,09,05,17.70
2015,08,16,09,06,17.80
2015,08,16,09,07,17.80
2015,08,16,09,08,17.80
2015,08,16,09,09,17.80
2015,08,16,09,10,17.80
2015,08,16,09,11,17.90
2015,08,16,09,12,17.90
2015,08,16,09,13,17.90
2015,08,16,09,14,17.90
2015,08,16,09,15,18.00
2015,08,16,09,16,18.00
2015,08,16,09,17,18.10
2015,08,16,09,18,18.10
2015,08,16,09,19,18.10
2015,08,16,09,20,18.20
2015,08,16,09,21,18.20
2015,08,16,09,22,18.20
2015,08,16,09,23,18.20
2015,08,16,09,24,18.20
2015,08,16,09,25,18.30
2015,08,16,09,26,18.30
2015,08,16,09,27,18.30
2015,08,16,09,28,18.40
2015,08,16,09,29,18.40
2015,08,16,09,30,18.50
2015,08,16,09,31,18.50
2015,08,16,09,32,18.60
2015,08,16,09,33,18.70
2015,08,16,09,34,18.70
2015,08,16,09,35,18.70
2015,08,16,09,36,18.70
2015,08,16,09,37,18.70
2015,08,16,09,38,18.80
2015,08,16,09,39,18.80
2015,08,16,09,40,18.80
2015,08,16,09,41,18.90
2015,08,16,09,42,18.90
2015,08,16,09,43,19.00
2015,08,16,09,44,19.00
2015,08,16,09,45,19.00
2015,08,16,09,46,19.00
2015,08,16,09,47,19.00
2015,08,16,09,48,19.10
2015,08,16,09,49,19.10
2015,08,16,09,50,19.20
2015,08,16,09,51,19.20
2015,08,16,09,52,19.20
2015,08,16,09,53,19.30
2015,08,16,09,54,19.30
2015,08,16,09,55,19.30
2015,08,16,09,56,19.30
2015,08,16,09,57,19.30
2015,08,16,09,58,19.30
2015,08,16,09,59,19.30
2015,08,16,10,00,19.30
2015,08,16,10,01,19.30
2015,08,16,10,02,19.30
2015,08,16,10,03,19.30
2015,08,16,10,04,19.40
2015,08,16,10,05,19.40
2015,08,16,10,06,19.40
2015,08,16,10,07,19.40
2015,08,16,10,08,19.40
2015,08,16,10,09,19.40
2015,08,16,10,10,19.40
2015,08,16,10,11,19.40
2015,08,16,10,12,19.30
2015,08,16,10,13,19.30
2015,08,16,10,14,19.30
2015,08,16,10,15,19.20
2015,08,16,10,16,19.20
2015,08,16,10,17,19.20
2015,08,16,10,18,19.20
2015,08,16,10,19,19.10
2015,08,16,10,20,19.10
2015,08,16,10,21,19.10
2015,08,16,10,22,19.10
2015,08,16,10,23,19.10
2015,08,16,10,24,19.10
2015,08,16,10,25,19.10
2015,08,16,10,26,19.10
2015,08,16,10,27,19.10
2015,08,16,10,28,19.20
2015,08,16,10,29,19.20
2015,08,16,10,30,19.30
2015,08,16,10,31,19.40
2015,08,16,10,32,19.50
2015,08,16,10,33,19.60
2015,08,16,10,34,19.70
2015,08,16,10,35,19.80
2015,08,16,10,36,19.90
2015,08,16,10,37,20.00
2015,08,16,10,38,20.10
2015,08,16,10,39,20.20
2015,08,16,10,40,20.30
2015,08,16,10,41,20.30
2015,08,16,10,42,20.40
2015,08,16,10,43,20.50
2015,08,16,10,44,20.60
2015,08,16,10,45,20.60
2015,08,16,10,46,20.70
2015,08,16,10,47,20.70
2015,08,16,10,48,20.70
2015,08,16,10,49,20.70
2015,08,16,10,50,20.60
2015,08,16,10,51,20.60
2015,08,16,10,52,20.50
2015,08,16,10,53,20.50
2015,08,16,10,54,20.50
2015,08,16,10,55,20.40
2015,08,16,10,56,20.40
2015,08,16,10,57,20.40
2015,08,16,10,58,20.40
2015,08,16,10,59,20.40
2015,08,16,11,00,20.50
2015,08,16,11,01,20.50
2015,08,16,11,02,20.60
2015,08,16,11,03,20.60
2015,08,16,11,04,20.70
2015,08,16,11,05,20.70
2015,08,16,11,06,20.80
2015,08,16,11,07,20.90
2015,08,16,11,08,21.00
2015,08,16,11,09,21.10
2015,08,16,11,10,21.20
2015,08,16,11,11,21.30
2015,08,16,11,12,21.30
2015,08,16,11,13,21.30
2015,08,16,11,14,21.40
2015,08,16,11,15,21.40
2015,08,16,11,16,21.40
2015,08,16,11,17,21.50
2015,08,16,11,18,21.40
2015,08,16,11,19,21.40
2015,08,16,11,20,21.40
2015,08,16,11,21,21.40
2015,08,16,11,22,21.40
2015,08,16,11,23,21.40
2015,08,16,11,24,21.30
2015,08,16,11,25,21.30
2015,08,16,11,26,21.20
2015,08,16,11,27,21.20
2015,08,16,11,28,21.20
2015,08,16,11,29,21.30
2015,08,16,11,30,21.30
2015,08,16,11,31,21.40
2015,08,16,11,32,21.40
2015,08,16,11,33,21.50
2015,08,16,11,34,21.50
2015,08,16,11,35,21.60
2015,08,16,11,36,21.60
2015,08,16,11,37,21.60
2015,08,16,11,38,21.70
2015,08,16,11,39,21.70
2015,08,16,11,40,21.70
2015,08,16,11,41,21.80
2015,08,16,11,42,21.80
2015,08,16,11,43,21.90
2015,08,16,11,44,21.90
2015,08,16,11,45,22.00
2015,08,16,11,46,22.10
2015,08,16,11,47,22.20
2015,08,16,11,48,22.20
2015,08,16,11,49,22.30
2015,08,16,11,50,22.50
2015,08,16,11,51,22.60
2015,08,16,11,52,22.70
2015,08,16,11,53,22.80
2015,08,16,11,54,22.80
2015,08,16,11,55,22.80
2015,08,16,11,56,22.70
2015,08,16,11,57,22.70
2015,08,16,11,58,22.70
2015,08,16,11,59,22.70
2015,08,16,12,00,22.70
2015,08,16,12,01,22.60
2015,08,16,12,02,22.50
2015,08,16,12,03,22.50
2015,08,16,12,04,22.40
2015,08,16,12,05,22.30
2015,08,16,12,06,22.30
2015,08,16,12,07,22.30
2015,08,16,12,08,22.30
2015,08,16,12,09,22.20
2015,08,16,12,10,22.20
2015,08,16,12,11,22.10
2015,08,16,12,12,22.00
2015,08,16,12,13,21.90
2015,08,16,12,14,21.80
2015,08,16,12,15,21.70
2015,08,16,12,16,21.70
2015,08,16,12,17,21.60
2015,08,16,12,18,21.60
2015,08,16,12,19,21.50
2015,08,16,12,20,21.50
2015,08,16,12,21,21.50
2015,08,16,12,22,21.50
2015,08,16,12,23,21.60
2015,08,16,12,24,21.60
2015,08,16,12,25,21.50
2015,08,16,12,26,21.60
2015,08,16,12,27,21.60
2015,08,16,12,28,21.60
2015,08,16,12,29,21.70
2015,08,16,12,30,21.70
2015,08,16,12,31,21.80
2015,08,16,12,32,21.80
2015,08,16,12,33,21.80
2015,08,16,12,34,21.80
2015,08,16,12,35,21.90
2015,08,16,12,36,21.90
2015,08,16,12,37,21.90
2015,08,16,12,38,21.90
2015,08,16,12,39,22.00
2015,08,16,12,40,22.00
2015,08,16,12,41,22.00
2015,08,16,12,42,22.00
2015,08,16,12,43,22.10
2015,08,16,12,44,22.10
2015,08,16,12,45,22.10
2015,08,16,12,46,22.10
2015,08,16,12,47,22.20
2015,08,16,12,48,22.20
2015,08,16,12,49,22.30
2015,08,16,12,50,22.30
2015,08,16,12,51,22.30
2015,08,16,12,52,22.20
2015,08,16,12,53,22.30
2015,08,16,12,54,22.30
2015,08,16,12,55,22.30
2015,08,16,12,56,22.40
2015,08,16,12,57,22.40
2015,08,16,12,58,22.40
2015,08,16,12,59,22.50
2015,08,16,13,00,22.50
2015,08,16,13,01,22.60
2015,08,16,13,02,22.70
2015,08,16,13,03,22.70
2015,08,16,13,04,22.80
2015,08,16,13,05,22.80
2015,08,16,13,06,22.80
2015,08,16,13,07,22.90
2015,08,16,13,08,22.90
2015,08,16,13,09,22.90
2015,08,16,13,10,23.00
2015,08,16,13,11,23.10
2015,08,16,13,12,23.20
2015,08,16,13,13,23.30
2015,08,16,13,14,23.30
2015,08,16,13,15,23.40
2015,08,16,13,16,23.40
2015,08,16,13,17,23.30
2015,08,16,13,18,23.30
2015,08,16,13,19,23.40
2015,08,16,13,20,23.40
2015,08,16,13,21,23.50
2015,08,16,13,22,23.50
2015,08,16,13,23,23.60
2015,08,16,13,24,23.60
2015,08,16,13,25,23.60
2015,08,16,13,26,23.50
2015,08,16,13,27,23.40
2015,08,16,13,28,23.30
2015,08,16,13,29,23.30
2015,08,16,13,30,23.30
2015,08,16,13,31,23.20
2015,08,16,13,32,23.20
2015,08,16,13,33,23.10
2015,08,16,13,34,23.00
2015,08,16,13,35,22.90
2015,08,16,13,36,22.80
2015,08,16,13,37,22.80
2015,08,16,13,38,22.70
2015,08,16,13,39,22.70
2015,08,16,13,40,22.60
2015,08,16,13,41,22.60
2015,08,16,13,42,22.60
2015,08,16,13,43,22.50
2015,08,16,13,44,22.50
2015,08,16,13,45,22.40
2015,08,16,13,46,22.40
2015,08,16,13,47,22.40
2015,08,16,13,48,22.40
2015,08,16,13,49,22.40
2015,08,16,13,50,22.50
2015,08,16,13,51,22.50
2015,08,16,13,52,22.50
2015,08,16,13,53,22.60
2015,08,16,13,54,22.60
2015,08,16,13,55,22.60
2015,08,16,13,56,22.60
2015,08,16,13,57,22.50
2015,08,16,13,58,22.50
2015,08,16,13,59,22.50
2015,08,16,14,00,22.50
2015,08,16,14,01,22.60
2015,08,16,14,02,22.60
2015,08,16,14,03,22.70
2015,08,16,14,04,22.80
2015,08,16,14,05,22.80
2015,08,16,14,06,22.90
2015,08,16,14,07,23.00
2015,08,16,14,08,23.00
2015,08,16,14,09,23.10
2015,08,16,14,10,23.10
2015,08,16,14,11,23.10
2015,08,16,14,12,23.10
2015,08,16,14,13,23.10
2015,08,16,14,14,23.10
2015,08,16,14,15,23.10
2015,08,16,14,16,23.10
2015,08,16,14,17,23.20
2015,08,16,14,18,23.20
2015,08,16,14,19,23.30
2015,08,16,14,20,23.40
2015,08,16,14,21,23.50
2015,08,16,14,22,23.60
2015,08,16,14,23,23.60
2015,08,16,14,24,23.70
2015,08,16,14,25,23.70
2015,08,16,14,26,23.80
2015,08,16,14,27,23.80
2015,08,16,14,28,23.80
2015,08,16,14,29,23.80
2015,08,16,14,30,23.80
2015,08,16,14,31,23.80
2015,08,16,14,32,23.80
2015,08,16,14,33,23.80
2015,08,16,14,34,23.80
2015,08,16,14,35,23.80
2015,08,16,14,36,23.90
2015,08,16,14,37,23.90
2015,08,16,14,38,24.00
2015,08,16,14,39,24.10
2015,08,16,14,40,24.10
2015,08,16,14,41,24.20
2015,08,16,14,42,24.20
2015,08,16,14,43,24.20
2015,08,16,14,44,24.30
2015,08,16,14,45,24.30
2015,08,16,14,46,24.30
2015,08,16,14,47,24.40
2015,08,16,14,48,24.40
2015,08,16,14,49,24.50
2015,08,16,14,50,24.50
2015,08,16,14,51,24.50
2015,08,16,14,52,24.40
2015,08,16,14,53,24.40
2015,08,16,14,54,24.40
2015,08,16,14,55,24.40
2015,08,16,14,56,24.40
2015,08,16,14,57,24.50
2015,08,16,14,58,24.50
2015,08,16,14,59,24.50
2015,08,16,15,00,24.50
2015,08,16,15,01,24.60
2015,08,16,15,02,24.50
2015,08,16,15,03,24.50
2015,08,16,15,04,24.40
2015,08,16,15,05,24.40
2015,08,16,15,06,24.40
2015,08,16,15,07,24.40
2015,08,16,15,08,24.50
2015,08,16,15,09,24.50
2015,08,16,15,10,24.50
2015,08,16,15,11,24.40
2015,08,16,15,12,24.40
2015,08,16,15,13,24.40
2015,08,16,15,14,24.40
2015,08,16,15,15,24.40
2015,08,16,15,16,24.40
2015,08,16,15,17,24.40
2015,08,16,15,18,24.40
2015,08,16,15,19,24.40
2015,08,16,15,20,24.50
2015,08,16,15,21,24.50
2015,08,16,15,22,24.50
2015,08,16,15,23,24.40
2015,08,16,15,24,24.40
2015,08,16,15,25,24.40
2015,08,16,15,26,24.30
2015,08,16,15,27,24.40
2015,08,16,15,28,24.40
2015,08,16,15,29,24.40
2015,08,16,15,30,24.40
2015,08,16,15,31,24.50
2015,08,16,15,32,24.50
2015,08,16,15,33,24.60
2015,08,16,15,34,24.60
2015,08,16,15,35,24.60
2015,08,16,15,36,24.70
2015,08,16,15,37,24.70
2015,08,16,15,38,24.70
2015,08,16,15,39,24.70
2015,08,16,15,40,24.70
2015,08,16,15,41,24.70
2015,08,16,15,42,24.60
2015,08,16,15,43,24.60
2015,08,16,15,44,24.60
2015,08,16,15,45,24.50
2015,08,16,15,46,24.50
2015,08,16,15,47,24.50
2015,08,16,15,48,24.50
2015,08,16,15,49,24.50
2015,08,16,15,50,24.40
2015,08,16,15,51,24.40
2015,08,16,15,52,24.40
2015,08,16,15,53,24.50
2015,08,16,15,54,24.50
2015,08,16,15,55,24.40
2015,08,16,15,56,24.40
2015,08,16,15,57,24.40
2015,08,16,15,58,24.40
2015,08,16,15,59,24.40
2015,08,16,16,00,24.50
2015,08,16,16,01,24.50
2015,08,16,16,02,24.60
2015,08,16,16,03,24.60
2015,08,16,16,04,24.60
2015,08,16,16,05,24.60
2015,08,16,16,06,24.70
2015,08,16,16,07,24.70
2015,08,16,16,08,24.80
2015,08,16,16,09,24.80
2015,08,16,16,10,24.90
2015,08,16,16,11,24.90
2015,08,16,16,12,24.90
2015,08,16,16,13,24.90
2015,08,16,16,14,24.90
2015,08,16,16,15,24.90
2015,08,16,16,16,24.80
2015,08,16,16,17,24.70
2015,08,16,16,18,24.70
2015,08,16,16,19,24.70
2015,08,16,16,20,24.70
2015,08,16,16,21,24.70
2015,08,16,16,22,24.70
2015,08,16,16,23,24.70
2015,08,16,16,24,24.70
2015,08,16,16,25,24.70
2015,08,16,16,26,24.70
2015,08,16,16,27,24.70
2015,08,16,16,28,24.70
2015,08,16,16,29,24.80
2015,08,16,16,30,24.80
2015,08,16,16,31,24.90
2015,08,16,16,32,24.90
2015,08,16,16,33,24.90
2015,08,16,16,34,24.90
2015,08,16,16,35,24.90
2015,08,16,16,36,25.00
2015,08,16,16,37,25.00
2015,08,16,16,38,24.90
2015,08,16,16,39,24.90
2015,08,16,16,40,24.90
2015,08,16,16,41,25.00
2015,08,16,16,42,25.00
2015,08,16,16,43,25.10
2015,08,16,16,44,25.10
2015,08,16,16,45,25.10
2015,08,16,16,46,25.20
2015,08,16,16,47,25.10
2015,08,16,16,48,25.10
2015,08,16,16,49,25.10
2015,08,16,16,50,25.00
2015,08,16,16,51,25.00
2015,08,16,16,52,24.90
2015,08,16,16,53,24.90
2015,08,16,16,54,24.90
2015,08,16,16,55,24.90
2015,08,16,16,56,24.90
2015,08,16,16,57,24.90
2015,08,16,16,58,25.00
2015,08,16,16,59,25.00
2015,08,16,17,00,25.00
2015,08,16,17,01,25.10
2015,08,16,17,02,25.10
2015,08,16,17,03,25.10
2015,08,16,17,04,25.10
2015,08,16,17,05,25.20
2015,08,16,17,06,25.20
2015,08,16,17,07,25.20
2015,08,16,17,08,25.20
2015,08,16,17,09,25.20
2015,08,16,17,10,25.20
2015,08,16,17,11,25.10
2015,08,16,17,12,25.10
2015,08,16,17,13,25.00
2015,08,16,17,14,25.00
2015,08,16,17,15,24.90
2015,08,16,17,16,24.90
2015,08,16,17,17,24.90
2015,08,16,17,18,24.90
2015,08,16,17,19,24.90